This is the latest recevied weather packets stored in our database for station/object IW7DVM-13. If no packets are shown the sender has not sent any weather packets the latest 10 day(s).
| Time | Temp. | Humidity | Pressure | Rain* | Wind** | Luminosity | Snow |
|---|---|---|---|---|---|---|---|
| 1788055203 | 28.33° C | 48% | 1008.9 hPa | 0 mm | - | - | - |
| 1788054903 | 28.33° C | 49% | 1008.9 hPa | 0 mm | - | - | - |
| 1788054603 | 28.33° C | 49% | 1009 hPa | 0 mm | - | - | - |
| 1788054303 | 28.33° C | 49% | 1009 hPa | 0 mm | - | - | - |
| 1788054003 | 28.33° C | 49% | 1009 hPa | 0 mm | - | - | - |
| 1788053703 | 28.33° C | 49% | 1008.8 hPa | 0 mm | - | - | - |
| 1788053403 | 28.33° C | 50% | 1008.9 hPa | 0 mm | - | - | - |
| 1788053103 | 28.33° C | 50% | 1008.9 hPa | 0 mm | - | - | - |
| 1788052803 | 28.33° C | 49% | 1009 hPa | 0 mm | - | - | - |
| 1788052503 | 28.33° C | 49% | 1009 hPa | 0 mm | - | - | - |
| 1788052203 | 28.33° C | 50% | 1008.9 hPa | 0 mm | - | - | - |
| 1788051903 | 27.78° C | 50% | 1008.8 hPa | 0 mm | - | - | - |
| 1788051603 | 28.33° C | 50% | 1009 hPa | 0 mm | - | - | - |
| 1788051303 | 28.33° C | 49% | 1009 hPa | 0 mm | - | - | - |
| 1788051003 | 28.33° C | 49% | 1009 hPa | 0 mm | - | - | - |
| 1788050703 | 28.33° C | 50% | 1008.8 hPa | 0 mm | - | - | - |
| 1788050403 | 28.89° C | 49% | 1008.8 hPa | 0 mm | - | - | - |
| 1788050103 | 29.44° C | 48% | 1008.7 hPa | 0 mm | - | - | - |
| 1788049803 | 29.44° C | 47% | 1008.7 hPa | 0 mm | - | - | - |
| 1788049503 | 29.44° C | 47% | 1008.7 hPa | 0 mm | - | - | - |
| 1788049203 | 29.44° C | 47% | 1008.7 hPa | 0 mm | - | - | - |
| 1788048903 | 30° C | 47% | 1008.9 hPa | 0 mm | - | - | - |
| 1788048603 | 30° C | 47% | 1008.8 hPa | 0 mm | - | - | - |
| 1788048303 | 30° C | 46% | 1008.7 hPa | 0 mm | - | - | - |
| 1788048003 | 30° C | 46% | 1008.7 hPa | 0 mm | - | - | - |
* Rain latest hour (hover to see other rain measurements)
** Current wind speed in m/s (hover to see current wind gust speed)